| time (UTC) | temp F | wind direction | speed MPH | gust MPH | rain 1hr in | rain 24hr in | rain mn in | humidity % | barometer mb |
| 20260507174535 | 69 | 39 | 2.0 | 5.0 | 0.00 | 0.00 | 0.00 | 56 | 1018.8 |
| 20260507174034 | 69 | 61 | 2.0 | 5.0 | 0.00 | 0.00 | 0.00 | 55 | 1019.0 |
| 20260507173535 | 69 | 42 | 2.0 | 6.0 | 0.00 | 0.00 | 0.00 | 58 | 1019.1 |
| 20260507173035 | 68 | 57 | 3.0 | 5.0 | 0.00 | 0.00 | 0.00 | 57 | 1019.2 |
| 20260507172534 | 68 | 64 | 2.0 | 5.0 | 0.00 | 0.00 | 0.00 | 56 | 1019.4 |
| 20260507172034 | 68 | 50 | 2.0 | 3.0 | 0.00 | 0.00 | 0.00 | 56 | 1019.5 |
| 20260507171534 | 68 | 63 | 2.0 | 3.0 | 0.00 | 0.00 | 0.00 | 58 | 1019.6 |
| 20260507171034 | 67 | 65 | 1.0 | 5.0 | 0.00 | 0.00 | 0.00 | 59 | 1019.9 |
| 20260507170614 | 68 | 82 | 3.0 | 7.0 | 0.00 | 0.00 | 0.00 | 58 | 1020.0 |
| 20260507170104 | 68 | 45 | 2.0 | 5.0 | 0.00 | 0.00 | 0.00 | 58 | 1020.0 |
| 20260507165616 | 67 | 73 | 1.0 | 3.0 | 0.00 | 0.00 | 0.00 | 59 | 1020.1 |
| 20260507165040 | 67 | 49 | 4.0 | 9.0 | 0.00 | 0.00 | 0.00 | 60 | 1020.1 |
| 20260507164535 | 67 | 68 | 2.0 | 5.0 | 0.00 | 0.00 | 0.00 | 58 | 1020.2 |
| 20260507164034 | 67 | 45 | 3.0 | 6.0 | 0.00 | 0.00 | 0.00 | 60 | 1020.3 |
| 20260507163535 | 66 | 60 | 1.0 | 5.0 | 0.00 | 0.00 | 0.00 | 61 | 1020.3 |
| 20260507163035 | 65 | 69 | 2.0 | 6.0 | 0.00 | 0.00 | 0.00 | 62 | 1020.2 |
| 20260507162534 | 66 | 78 | 2.0 | 5.0 | 0.00 | 0.00 | 0.00 | 61 | 1020.3 |
| 20260507162034 | 66 | 72 | 1.0 | 2.0 | 0.00 | 0.00 | 0.00 | 63 | 1020.2 |
| 20260507161535 | 65 | 85 | 1.0 | 3.0 | 0.00 | 0.00 | 0.00 | 62 | 1020.3 |
| 20260507161034 | 65 | 52 | 2.0 | 7.0 | 0.00 | 0.00 | 0.00 | 63 | 1020.2 |
| 20260507160534 | 65 | 50 | 2.0 | 5.0 | 0.00 | 0.00 | 0.00 | 64 | 1020.2 |
| 20260507160034 | 65 | 11 | 2.0 | 6.0 | 0.00 | 0.00 | 0.00 | 64 | 1020.4 |
| 20260507155641 | 65 | 55 | 3.0 | 5.0 | 0.00 | 0.00 | 0.00 | 64 | 1020.3 |
| 20260507155055 | 64 | 88 | 2.0 | 5.0 | 0.00 | 0.00 | 0.00 | 66 | 1020.3 |
| 20260507154534 | 64 | 68 | 2.0 | 6.0 | 0.00 | 0.00 | 0.00 | 67 | 1020.4 |
| 20260507154035 | 63 | 36 | 3.0 | 5.0 | 0.00 | 0.00 | 0.00 | 68 | 1020.3 |
| 20260507153529 | 62 | 54 | 3.0 | 6.0 | 0.00 | 0.00 | 0.00 | 68 | 1020.5 |
| 20260507153112 | 62 | 55 | 1.0 | 3.0 | 0.00 | 0.00 | 0.00 | 71 | 1020.4 |
| 20260507152553 | 62 | 50 | 2.0 | 3.0 | 0.00 | 0.00 | 0.00 | 70 | 1020.6 |
| 20260507152033 | 61 | 73 | 1.0 | 3.0 | 0.00 | 0.00 | 0.00 | 72 | 1020.7 |
| 20260507151616 | 61 | 75 | 1.0 | 3.0 | 0.00 | 0.01 | 0.00 | 71 | 1020.6 |
| 20260507151057 | 62 | 75 | 1.0 | 3.0 | 0.00 | 0.02 | 0.00 | 72 | 1020.6 |
| 20260507150534 | 61 | 72 | 1.0 | 3.0 | 0.00 | 0.04 | 0.00 | 73 | 1020.8 |
| 20260507150121 | 60 | 79 | 1.0 | 2.0 | 0.00 | 0.04 | 0.00 | 74 | 1020.9 |
| 20260507145600 | 60 | 84 | 1.0 | 2.0 | 0.00 | 0.05 | 0.00 | 75 | 1020.8 |
| 20260507145041 | 61 | 72 | 1.0 | 3.0 | 0.00 | 0.06 | 0.00 | 76 | 1020.7 |
| 20260507144522 | 61 | 85 | 1.0 | 2.0 | 0.00 | 0.06 | 0.00 | 75 | 1020.7 |
| 20260507144104 | 61 | 67 | 1.0 | 3.0 | 0.00 | 0.06 | 0.00 | 78 | 1020.8 |
| 20260507143544 | 59 | 66 | 1.0 | 2.0 | 0.00 | 0.06 | 0.00 | 82 | 1020.8 |
| 20260507143034 | 59 | 66 | 1.0 | 2.0 | 0.00 | 0.06 | 0.00 | 84 | 1021.0 |
| 20260507142554 | 58 | 38 | 1.0 | 1.0 | 0.00 | 0.07 | 0.00 | 86 | 1020.9 |
| 20260507142035 | 57 | 32 | 1.0 | 1.0 | 0.00 | 0.07 | 0.00 | 87 | 1021.0 |
| 20260507141534 | 57 | 71 | 1.0 | 2.0 | 0.00 | 0.07 | 0.00 | 87 | 1021.0 |
| 20260507141034 | 56 | 52 | 0.0 | 2.0 | 0.00 | 0.07 | 0.00 | 88 | 1021.0 |
| 20260507140534 | 56 | 33 | 1.0 | 2.0 | 0.00 | 0.07 | 0.00 | 87 | 1021.1 |
| 20260507140035 | 56 | 3 | 0.0 | 1.0 | 0.00 | 0.07 | 0.00 | 87 | 1021.1 |
| 20260507135534 | 55 | 23 | 1.0 | 2.0 | 0.00 | 0.07 | 0.00 | 87 | 1021.2 |
| 20260507135034 | 55 | 47 | 0.0 | 1.0 | 0.00 | 0.07 | 0.00 | 87 | 1021.2 |
| 20260507134535 | 54 | 57 | 0.0 | 1.0 | 0.00 | 0.07 | 0.00 | 88 | 1021.2 |
| 20260507134034 | 54 | 40 | 1.0 | 2.0 | 0.00 | 0.07 | 0.00 | 88 | 1021.1 |
| 20260507133534 | 55 | 65 | 1.0 | 2.0 | 0.00 | 0.07 | 0.00 | 88 | 1021.1 |
| 20260507133034 | 54 | 70 | 0.0 | 1.0 | 0.00 | 0.07 | 0.00 | 89 | 1021.3 |
| 20260507132554 | 54 | 48 | 0.0 | 1.0 | 0.00 | 0.07 | 0.00 | 91 | 1021.3 |
| 20260507132120 | 53 | 74 | 0.0 | 1.0 | 0.00 | 0.07 | 0.00 | 91 | 1021.2 |
| 20260507131601 | 53 | 69 | 0.0 | 1.0 | 0.00 | 0.07 | 0.00 | 92 | 1021.1 |
| 20260507131034 | 53 | 42 | 0.0 | 1.0 | 0.00 | 0.07 | 0.00 | 92 | 1021.2 |
| 20260507130555 | 52 | 68 | 0.0 | 1.0 | 0.00 | 0.07 | 0.00 | 93 | 1021.1 |
| 20260507130035 | 52 | 72 | 0.0 | 1.0 | 0.00 | 0.07 | 0.00 | 94 | 1021.0 |
| 20260507125534 | 52 | 355 | 1.0 | 2.0 | 0.00 | 0.07 | 0.00 | 95 | 1020.9 |
| 20260507125034 | 51 | 75 | 0.0 | 1.0 | 0.00 | 0.07 | 0.00 | 96 | 1021.0 |
| 20260507124534 | 51 | 55 | 0.0 | 1.0 | 0.00 | 0.07 | 0.00 | 97 | 1020.8 |
| 20260507124033 | 50 | 0.0 | 0.0 | 0.00 | 0.07 | 0.00 | 97 | 1020.8 | |
| 20260507123637 | 50 | 60 | 0.0 | 1.0 | 0.00 | 0.07 | 0.00 | 98 | 1020.7 |
| 20260507123056 | 50 | 60 | 0.0 | 1.0 | 0.00 | 0.07 | 0.00 | 98 | 1020.7 |
| 20260507122534 | 50 | 0.0 | 0.0 | 0.00 | 0.07 | 0.00 | 98 | 1020.6 | |
| 20260507122121 | 50 | 0.0 | 0.0 | 0.00 | 0.07 | 0.00 | 98 | 1020.6 | |
| 20260507121601 | 50 | 0.0 | 0.0 | 0.00 | 0.07 | 0.00 | 98 | 1020.6 | |
| 20260507121035 | 50 | 64 | 0.0 | 1.0 | 0.00 | 0.07 | 0.00 | 98 | 1020.5 |
| 20260507120534 | 50 | 0.0 | 0.0 | 0.00 | 0.07 | 0.00 | 98 | 1020.4 | |
| 20260507120055 | 50 | 0.0 | 0.0 | 0.00 | 0.07 | 0.00 | 98 | 1020.3 | |
| 20260507115534 | 50 | 0.0 | 0.0 | 0.00 | 0.07 | 0.00 | 98 | 1020.3 | |
| 20260507115045 | 50 | 0.0 | 0.0 | 0.00 | 0.07 | 0.00 | 98 | 1020.2 | |
| 20260507114609 | 49 | 94 | 0.0 | 1.0 | 0.00 | 0.07 | 0.00 | 98 | 1020.2 |
| 20260507114049 | 49 | 0.0 | 0.0 | 0.00 | 0.07 | 0.00 | 98 | 1020.2 | |
| 20260507113530 | 49 | 0.0 | 0.0 | 0.00 | 0.07 | 0.00 | 97 | 1020.4 | |
| 20260507113113 | 49 | 0.0 | 0.0 | 0.00 | 0.07 | 0.00 | 97 | 1020.2 | |
| 20260507112553 | 50 | 0.0 | 0.0 | 0.00 | 0.07 | 0.00 | 97 | 1020.4 | |
| 20260507112034 | 50 | 0.0 | 0.0 | 0.00 | 0.07 | 0.00 | 97 | 1020.3 | |
| 20260507111617 | 50 | 0.0 | 0.0 | 0.00 | 0.07 | 0.00 | 97 | 1020.3 | |
| 20260507111057 | 50 | 96 | 0.0 | 1.0 | 0.00 | 0.07 | 0.00 | 97 | 1020.1 |
| 20260507110554 | 50 | 81 | 0.0 | 1.0 | 0.00 | 0.07 | 0.00 | 97 | 1020.6 |
| 20260507110034 | 50 | 76 | 0.0 | 1.0 | 0.00 | 0.07 | 0.00 | 97 | 1020.5 |
| 20260507105534 | 50 | 80 | 0.0 | 1.0 | 0.00 | 0.07 | 0.00 | 97 | 1020.5 |
| 20260507105045 | 50 | 0.0 | 0.0 | 0.00 | 0.07 | 0.00 | 97 | 1020.3 | |
| 20260507104609 | 50 | 0.0 | 0.0 | 0.00 | 0.07 | 0.00 | 97 | 1020.2 | |
| 20260507104049 | 50 | 0.0 | 0.0 | 0.00 | 0.07 | 0.00 | 97 | 1020.0 | |
| 20260507103614 | 50 | 0.0 | 0.0 | 0.00 | 0.07 | 0.00 | 97 | 1020.1 | |
| 20260507103055 | 50 | 0.0 | 0.0 | 0.00 | 0.07 | 0.00 | 96 | 1020.0 | |
| 20260507102534 | 50 | 0.0 | 0.0 | 0.00 | 0.07 | 0.00 | 96 | 1019.8 | |
| 20260507102033 | 50 | 0.0 | 0.0 | 0.00 | 0.07 | 0.00 | 96 | 1019.8 | |
| 20260507101637 | 50 | 0.0 | 0.0 | 0.00 | 0.07 | 0.00 | 96 | 1019.7 | |
| 20260507101057 | 50 | 0.0 | 0.0 | 0.00 | 0.07 | 0.00 | 96 | 1019.5 | |
| 20260507100534 | 50 | 0.0 | 0.0 | 0.00 | 0.07 | 0.00 | 95 | 1019.5 | |
| 20260507100035 | 50 | 0.0 | 0.0 | 0.00 | 0.07 | 0.00 | 95 | 1019.2 | |
| 20260507095534 | 50 | 0.0 | 0.0 | 0.00 | 0.07 | 0.00 | 95 | 1019.4 | |
| 20260507095034 | 51 | 0.0 | 0.0 | 0.00 | 0.07 | 0.00 | 95 | 1019.3 | |
| 20260507094522 | 51 | 0.0 | 0.0 | 0.00 | 0.07 | 0.00 | 95 | 1019.3 | |
| 20260507094105 | 51 | 74 | 0.0 | 1.0 | 0.00 | 0.07 | 0.00 | 94 | 1019.1 |
| 20260507093535 | 51 | 0.0 | 0.0 | 0.00 | 0.07 | 0.00 | 94 | 1019.0 | |
| 20260507093034 | 51 | 61 | 0.0 | 1.0 | 0.00 | 0.07 | 0.00 | 94 | 1019.0 |
| 20260507092534 | 51 | 69 | 0.0 | 1.0 | 0.00 | 0.07 | 0.00 | 94 | 1018.7 |
| 20260507092034 | 51 | 47 | 1.0 | 2.0 | 0.00 | 0.07 | 0.00 | 94 | 1018.6 |
| 20260507091550 | 51 | 55 | 1.0 | 2.0 | 0.00 | 0.07 | 0.00 | 94 | 1018.5 |
| 20260507091133 | 51 | 48 | 1.0 | 2.0 | 0.00 | 0.07 | 0.00 | 94 | 1018.4 |
| 20260507090553 | 51 | 48 | 1.0 | 2.0 | 0.00 | 0.07 | 0.00 | 94 | 1018.3 |
| 20260507090035 | 51 | 54 | 1.0 | 2.0 | 0.00 | 0.07 | 0.00 | 94 | 1018.3 |
| 20260507085534 | 51 | 47 | 1.0 | 3.0 | 0.00 | 0.07 | 0.00 | 94 | 1018.5 |
| 20260507085034 | 51 | 45 | 1.0 | 2.0 | 0.00 | 0.07 | 0.00 | 95 | 1018.4 |
| 20260507084522 | 51 | 70 | 0.0 | 1.0 | 0.00 | 0.07 | 0.00 | 94 | 1018.6 |
| 20260507084105 | 51 | 60 | 0.0 | 1.0 | 0.00 | 0.07 | 0.00 | 94 | 1018.6 |
| 20260507083545 | 51 | 69 | 0.0 | 1.0 | 0.00 | 0.07 | 0.00 | 95 | 1018.6 |
| 20260507083035 | 51 | 71 | 0.0 | 1.0 | 0.00 | 0.07 | 0.00 | 95 | 1018.6 |
| 20260507082554 | 51 | 0.0 | 0.0 | 0.00 | 0.07 | 0.00 | 95 | 1018.7 | |
| 20260507082033 | 51 | 0.0 | 0.0 | 0.00 | 0.07 | 0.00 | 95 | 1018.7 | |
| 20260507081610 | 51 | 70 | 0.0 | 1.0 | 0.00 | 0.07 | 0.00 | 95 | 1018.7 |
| 20260507081113 | 51 | 0.0 | 0.0 | 0.00 | 0.07 | 0.00 | 95 | 1018.5 | |
| 20260507080553 | 51 | 0.0 | 0.0 | 0.00 | 0.07 | 0.00 | 95 | 1018.7 | |
| 20260507080034 | 51 | 0.0 | 0.0 | 0.00 | 0.07 | 0.00 | 94 | 1018.6 | |
| 20260507075534 | 51 | 0.0 | 0.0 | 0.00 | 0.07 | 0.00 | 94 | 1018.7 | |
| 20260507075054 | 51 | 0.0 | 0.0 | 0.00 | 0.07 | 0.00 | 94 | 1018.4 | |
| 20260507074555 | 52 | 0.0 | 0.0 | 0.00 | 0.07 | 0.00 | 94 | 1018.4 | |
| 20260507074121 | 51 | 0.0 | 0.0 | 0.00 | 0.07 | 0.00 | 94 | 1018.3 | |
| 20260507073601 | 52 | 0.0 | 0.0 | 0.00 | 0.07 | 0.00 | 94 | 1018.3 | |
| 20260507073035 | 52 | 31 | 1.0 | 2.0 | 0.00 | 0.07 | 0.00 | 94 | 1018.2 |
| 20260507072534 | 51 | 48 | 1.0 | 5.0 | 0.00 | 0.07 | 0.00 | 94 | 1018.2 |
| 20260507072033 | 51 | 54 | 1.0 | 2.0 | 0.00 | 0.07 | 0.00 | 94 | 1018.2 |
| 20260507071535 | 51 | 55 | 0.0 | 2.0 | 0.00 | 0.07 | 0.00 | 94 | 1018.4 |
| 20260507071113 | 52 | 0.0 | 0.0 | 0.00 | 0.07 | 0.00 | 94 | 1018.5 | |
| 20260507070553 | 52 | 64 | 0.0 | 1.0 | 0.00 | 0.07 | 0.00 | 94 | 1018.5 |
| 20260507070035 | 52 | 72 | 0.0 | 1.0 | 0.00 | 0.07 | 0.00 | 93 | 1018.4 |
| 20260507065554 | 52 | 66 | 0.0 | 1.0 | 0.00 | 0.07 | 0.00 | 93 | 1018.5 |
| 20260507065034 | 52 | 67 | 0.0 | 1.0 | 0.00 | 0.07 | 0.00 | 93 | 1018.4 |
| 20260507064615 | 52 | 67 | 0.0 | 1.0 | 0.00 | 0.07 | 0.00 | 93 | 1018.2 |
| 20260507064121 | 52 | 0.0 | 0.0 | 0.00 | 0.07 | 0.00 | 93 | 1018.3 | |
| 20260507063602 | 52 | 0.0 | 0.0 | 0.00 | 0.07 | 0.00 | 92 | 1018.3 | |
| 20260507063102 | 52 | 0.0 | 0.0 | 0.00 | 0.07 | 0.00 | 92 | 1018.1 | |
| 20260507062554 | 53 | 0.0 | 0.0 | 0.00 | 0.07 | 0.00 | 92 | 1018.2 | |
| 20260507062033 | 53 | 0.0 | 0.0 | 0.00 | 0.07 | 0.00 | 91 | 1018.1 | |
| 20260507061535 | 53 | 0.0 | 0.0 | 0.00 | 0.07 | 0.00 | 90 | 1018.1 | |
| 20260507061034 | 53 | 0.0 | 0.0 | 0.00 | 0.07 | 0.00 | 90 | 1018.1 | |
| 20260507060542 | 53 | 0.0 | 0.0 | 0.00 | 0.07 | 0.00 | 89 | 1017.9 | |
| 20260507060105 | 54 | 70 | 0.0 | 1.0 | 0.00 | 0.07 | 0.00 | 89 | 1017.9 |
| 20260507055545 | 54 | 69 | 0.0 | 1.0 | 0.00 | 0.07 | 0.00 | 89 | 1017.9 |
| 20260507055025 | 54 | 0.0 | 0.0 | 0.00 | 0.07 | 0.00 | 88 | 1018.0 | |
| 20260507054609 | 54 | 0.0 | 0.0 | 0.00 | 0.07 | 0.00 | 88 | 1017.9 | |
| 20260507054049 | 54 | 0.0 | 0.0 | 0.00 | 0.07 | 0.00 | 87 | 1017.8 | |
| 20260507053530 | 55 | 72 | 0.0 | 1.0 | 0.00 | 0.07 | 0.00 | 87 | 1017.8 |
| 20260507053113 | 55 | 74 | 0.0 | 1.0 | 0.00 | 0.07 | 0.00 | 86 | 1018.0 |
| 20260507052613 | 55 | 29 | 1.0 | 3.0 | 0.00 | 0.07 | 0.00 | 86 | 1017.9 |
| 20260507052034 | 55 | 69 | 0.0 | 1.0 | 0.00 | 0.07 | 0.00 | 86 | 1017.8 |
| 20260507051657 | 55 | 76 | 0.0 | 1.0 | 0.00 | 0.07 | 0.00 | 85 | 1017.8 |
| 20260507051057 | 55 | 64 | 0.0 | 2.0 | 0.00 | 0.07 | 0.00 | 85 | 1017.8 |
| 20260507050534 | 56 | 52 | 1.0 | 2.0 | 0.00 | 0.07 | 0.00 | 84 | 1017.8 |
| 20260507050121 | 56 | 76 | 1.0 | 2.0 | 0.00 | 0.07 | 0.00 | 84 | 1017.6 |
| 20260507045601 | 56 | 65 | 1.0 | 2.0 | 0.00 | 0.07 | 0.07 | 84 | 1017.6 |
| 20260507045041 | 56 | 59 | 1.0 | 2.0 | 0.00 | 0.07 | 0.07 | 84 | 1017.7 |
| 20260507044522 | 56 | 65 | 1.0 | 2.0 | 0.00 | 0.07 | 0.07 | 84 | 1017.6 |
| 20260507044105 | 56 | 74 | 0.0 | 1.0 | 0.00 | 0.07 | 0.07 | 84 | 1017.8 |
| 20260507043546 | 56 | 80 | 0.0 | 2.0 | 0.00 | 0.07 | 0.07 | 84 | 1017.8 |
| 20260507043027 | 56 | 69 | 0.0 | 1.0 | 0.00 | 0.07 | 0.07 | 83 | 1017.7 |
| 20260507042609 | 56 | 72 | 1.0 | 2.0 | 0.00 | 0.07 | 0.07 | 83 | 1017.9 |
| 20260507042049 | 57 | 74 | 1.0 | 3.0 | 0.00 | 0.07 | 0.07 | 82 | 1017.9 |
| 20260507041551 | 57 | 76 | 2.0 | 2.0 | 0.00 | 0.07 | 0.07 | 82 | 1017.9 |
| 20260507041113 | 57 | 74 | 2.0 | 5.0 | 0.00 | 0.07 | 0.07 | 82 | 1017.8 |
| 20260507040553 | 57 | 66 | 1.0 | 2.0 | 0.00 | 0.07 | 0.07 | 82 | 1018.0 |
| 20260507040034 | 57 | 68 | 1.0 | 3.0 | 0.00 | 0.07 | 0.07 | 81 | 1017.9 |
| 20260507035617 | 57 | 68 | 1.0 | 2.0 | 0.00 | 0.07 | 0.07 | 81 | 1018.0 |
| 20260507035057 | 57 | 77 | 1.0 | 2.0 | 0.00 | 0.07 | 0.07 | 81 | 1018.0 |
| 20260507034535 | 57 | 60 | 2.0 | 3.0 | 0.00 | 0.07 | 0.07 | 81 | 1018.0 |
| 20260507034122 | 57 | 71 | 2.0 | 3.0 | 0.00 | 0.07 | 0.07 | 81 | 1017.8 |
| 20260507033601 | 57 | 73 | 3.0 | 6.0 | 0.00 | 0.07 | 0.07 | 80 | 1017.9 |
| 20260507033042 | 58 | 73 | 1.0 | 3.0 | 0.00 | 0.07 | 0.07 | 80 | 1017.8 |
| 20260507032522 | 58 | 64 | 2.0 | 2.0 | 0.00 | 0.07 | 0.07 | 80 | 1017.8 |
| 20260507032035 | 58 | 73 | 3.0 | 6.0 | 0.00 | 0.07 | 0.07 | 79 | 1017.8 |
| 20260507031633 | 58 | 30 | 2.0 | 5.0 | 0.00 | 0.07 | 0.07 | 79 | 1017.7 |
| 20260507031057 | 58 | 76 | 2.0 | 3.0 | 0.00 | 0.07 | 0.07 | 79 | 1017.8 |
| 20260507030555 | 59 | 50 | 2.0 | 3.0 | 0.00 | 0.07 | 0.07 | 79 | 1017.8 |
| 20260507030121 | 59 | 62 | 1.0 | 3.0 | 0.00 | 0.07 | 0.07 | 79 | 1017.7 |
| 20260507025601 | 59 | 40 | 2.0 | 5.0 | 0.00 | 0.07 | 0.07 | 78 | 1017.7 |
| 20260507025046 | 59 | 47 | 1.0 | 3.0 | 0.00 | 0.07 | 0.07 | 78 | 1017.6 |
| 20260507024553 | 59 | 38 | 2.0 | 3.0 | 0.00 | 0.07 | 0.07 | 78 | 1017.5 |
| 20260507024121 | 59 | 40 | 2.0 | 5.0 | 0.00 | 0.07 | 0.07 | 78 | 1017.4 |
| 20260507023601 | 59 | 33 | 3.0 | 6.0 | 0.00 | 0.07 | 0.07 | 77 | 1017.4 |
| 20260507023041 | 59 | 43 | 2.0 | 3.0 | 0.00 | 0.07 | 0.07 | 78 | 1017.3 |
| 20260507022522 | 59 | 57 | 2.0 | 3.0 | 0.00 | 0.07 | 0.07 | 78 | 1017.2 |
| 20260507022105 | 60 | 42 | 1.0 | 2.0 | 0.00 | 0.07 | 0.07 | 77 | 1017.2 |
| 20260507021546 | 60 | 38 | 3.0 | 6.0 | 0.00 | 0.07 | 0.07 | 77 | 1017.1 |
| 20260507021026 | 60 | 31 | 2.0 | 5.0 | 0.00 | 0.07 | 0.07 | 77 | 1016.9 |
| 20260507020609 | 60 | 47 | 2.0 | 3.0 | 0.00 | 0.07 | 0.07 | 77 | 1016.8 |
| 20260507020114 | 60 | 56 | 2.0 | 3.0 | 0.00 | 0.07 | 0.07 | 76 | 1016.9 |
| 20260507015601 | 60 | 37 | 3.0 | 6.0 | 0.00 | 0.07 | 0.07 | 76 | 1016.8 |
| 20260507015101 | 61 | 56 | 2.0 | 6.0 | 0.00 | 0.07 | 0.07 | 77 | 1016.6 |
| 20260507014522 | 61 | 44 | 2.0 | 5.0 | 0.00 | 0.07 | 0.07 | 77 | 1016.4 |
| 20260507014034 | 61 | 31 | 3.0 | 7.0 | 0.00 | 0.07 | 0.07 | 77 | 1016.3 |
| 20260507013601 | 61 | 49 | 2.0 | 7.0 | 0.00 | 0.07 | 0.07 | 77 | 1016.3 |
| 20260507013042 | 61 | 41 | 2.0 | 3.0 | 0.00 | 0.07 | 0.07 | 76 | 1016.0 |
| 20260507012542 | 61 | 51 | 2.0 | 3.0 | 0.00 | 0.07 | 0.07 | 76 | 1015.9 |
| 20260507012049 | 61 | 40 | 2.0 | 3.0 | 0.00 | 0.07 | 0.07 | 76 | 1015.8 |
| 20260507011531 | 61 | 43 | 2.0 | 5.0 | 0.00 | 0.07 | 0.07 | 75 | 1015.7 |
| 20260507011042 | 62 | 37 | 2.0 | 6.0 | 0.00 | 0.07 | 0.07 | 75 | 1015.6 |
| 20260507010522 | 62 | 45 | 2.0 | 5.0 | 0.00 | 0.07 | 0.07 | 75 | 1015.6 |
| 20260507010035 | 62 | 46 | 2.0 | 3.0 | 0.00 | 0.07 | 0.07 | 75 | 1015.5 |
| 20260507005617 | 62 | 53 | 3.0 | 5.0 | 0.00 | 0.07 | 0.07 | 74 | 1015.5 |
| 20260507005041 | 62 | 39 | 2.0 | 5.0 | 0.00 | 0.07 | 0.07 | 74 | 1015.4 |
| 20260507004609 | 62 | 35 | 3.0 | 6.0 | 0.00 | 0.07 | 0.07 | 74 | 1015.4 |
| 20260507004049 | 62 | 43 | 3.0 | 5.0 | 0.00 | 0.07 | 0.07 | 74 | 1015.3 |
| 20260507003530 | 63 | 54 | 2.0 | 5.0 | 0.00 | 0.07 | 0.07 | 74 | 1015.3 |
| 20260507003113 | 63 | 45 | 2.0 | 5.0 | 0.00 | 0.07 | 0.07 | 74 | 1015.3 |
| 20260507002553 | 63 | 21 | 3.0 | 6.0 | 0.00 | 0.07 | 0.07 | 73 | 1015.1 |
| 20260507002034 | 63 | 41 | 3.0 | 6.0 | 0.00 | 0.07 | 0.07 | 73 | 1015.1 |
| 20260507001617 | 64 | 37 | 2.0 | 3.0 | 0.00 | 0.07 | 0.07 | 74 | 1014.9 |
| 20260507001041 | 64 | 53 | 2.0 | 6.0 | 0.00 | 0.07 | 0.07 | 72 | 1015.0 |
| 20260507000629 | 64 | 51 | 3.0 | 5.0 | 0.00 | 0.07 | 0.07 | 72 | 1014.9 |
| 20260507000105 | 64 | 44 | 2.0 | 3.0 | 0.00 | 0.07 | 0.07 | 72 | 1014.8 |
| 20260506235535 | 64 | 36 | 3.0 | 5.0 | 0.00 | 0.07 | 0.07 | 71 | 1014.7 |
| 20260506235035 | 65 | 26 | 4.0 | 8.0 | 0.00 | 0.07 | 0.07 | 71 | 1014.5 |
| 20260506234535 | 65 | 50 | 2.0 | 5.0 | 0.00 | 0.07 | 0.07 | 71 | 1014.6 |
| 20260506234034 | 65 | 30 | 3.0 | 7.0 | 0.00 | 0.07 | 0.07 | 70 | 1014.5 |
| 20260506233555 | 65 | 32 | 3.0 | 5.0 | 0.00 | 0.07 | 0.07 | 70 | 1014.5 |
| 20260506233034 | 66 | 19 | 3.0 | 6.0 | 0.00 | 0.07 | 0.07 | 70 | 1014.4 |
| 20260506232534 | 66 | 38 | 3.0 | 8.0 | 0.00 | 0.07 | 0.07 | 70 | 1014.3 |
| 20260506232034 | 66 | 37 | 3.0 | 6.0 | 0.00 | 0.07 | 0.07 | 69 | 1014.3 |
| 20260506231555 | 67 | 31 | 3.0 | 5.0 | 0.00 | 0.07 | 0.07 | 68 | 1014.4 |
| 20260506231055 | 67 | 23 | 2.0 | 5.0 | 0.00 | 0.07 | 0.07 | 68 | 1014.2 |
| 20260506230553 | 66 | 52 | 3.0 | 7.0 | 0.00 | 0.07 | 0.07 | 67 | 1014.3 |
| 20260506230034 | 67 | 31 | 3.0 | 8.0 | 0.00 | 0.07 | 0.07 | 68 | 1014.2 |
| 20260506225601 | 67 | 24 | 2.0 | 7.0 | 0.00 | 0.07 | 0.07 | 67 | 1014.2 |
| 20260506225034 | 67 | 62 | 2.0 | 3.0 | 0.00 | 0.07 | 0.07 | 67 | 1014.2 |
| 20260506224535 | 67 | 43 | 3.0 | 6.0 | 0.00 | 0.07 | 0.07 | 67 | 1014.0 |
| 20260506224121 | 67 | 22 | 3.0 | 6.0 | 0.00 | 0.07 | 0.07 | 68 | 1014.0 |
| 20260506223601 | 66 | 20 | 3.0 | 7.0 | 0.00 | 0.07 | 0.07 | 68 | 1014.0 |
| 20260506223035 | 67 | 43 | 3.0 | 5.0 | 0.00 | 0.07 | 0.07 | 68 | 1014.0 |
| 20260506222626 | 67 | 46 | 3.0 | 6.0 | 0.00 | 0.07 | 0.07 | 68 | 1013.9 |
| 20260506222134 | 67 | 44 | 3.0 | 3.0 | 0.00 | 0.07 | 0.07 | 68 | 1013.9 |
| 20260506221602 | 67 | 54 | 2.0 | 5.0 | 0.00 | 0.07 | 0.07 | 69 | 1013.9 |
| 20260506221034 | 67 | 36 | 3.0 | 7.0 | 0.00 | 0.07 | 0.07 | 67 | 1014.0 |
| 20260506220542 | 68 | 57 | 2.0 | 5.0 | 0.00 | 0.07 | 0.07 | 67 | 1013.9 |
| 20260506220050 | 68 | 11 | 4.0 | 8.0 | 0.00 | 0.07 | 0.07 | 67 | 1014.0 |
| 20260506215554 | 68 | 55 | 3.0 | 6.0 | 0.00 | 0.07 | 0.07 | 67 | 1014.0 |
| 20260506215034 | 68 | 24 | 2.0 | 7.0 | 0.00 | 0.07 | 0.07 | 66 | 1014.0 |
| 20260506214609 | 68 | 21 | 2.0 | 5.0 | 0.00 | 0.07 | 0.07 | 67 | 1013.9 |
| 20260506214050 | 68 | 50 | 3.0 | 6.0 | 0.00 | 0.07 | 0.07 | 67 | 1013.9 |
| 20260506213531 | 68 | 43 | 4.0 | 6.0 | 0.00 | 0.07 | 0.07 | 66 | 1013.8 |
| 20260506213133 | 69 | 12 | 2.0 | 6.0 | 0.00 | 0.07 | 0.07 | 67 | 1013.9 |
| 20260506212630 | 68 | 65 | 1.0 | 3.0 | 0.00 | 0.07 | 0.07 | 67 | 1013.8 |
| 20260506212123 | 67 | 62 | 2.0 | 3.0 | 0.00 | 0.07 | 0.07 | 67 | 1014.0 |
| 20260506211602 | 67 | 45 | 2.0 | 6.0 | 0.00 | 0.07 | 0.07 | 69 | 1014.1 |
| 20260506211034 | 67 | 76 | 4.0 | 9.0 | 0.00 | 0.07 | 0.07 | 67 | 1014.3 |
| 20260506210522 | 67 | 75 | 1.0 | 2.0 | 0.00 | 0.07 | 0.07 | 68 | 1014.4 |
| 20260506210105 | 67 | 47 | 2.0 | 6.0 | 0.00 | 0.07 | 0.07 | 68 | 1014.2 |
| 20260506205534 | 66 | 35 | 3.0 | 6.0 | 0.00 | 0.07 | 0.07 | 68 | 1014.2 |
| 20260506205035 | 66 | 36 | 3.0 | 6.0 | 0.00 | 0.07 | 0.07 | 69 | 1014.1 |
| 20260506204535 | 66 | 54 | 3.0 | 7.0 | 0.00 | 0.07 | 0.07 | 69 | 1014.1 |
| 20260506204034 | 66 | 38 | 2.0 | 5.0 | 0.00 | 0.07 | 0.07 | 70 | 1014.3 |
| 20260506203617 | 65 | 55 | 3.0 | 6.0 | 0.00 | 0.07 | 0.07 | 70 | 1014.3 |
| 20260506203042 | 65 | 65 | 3.0 | 6.0 | 0.00 | 0.07 | 0.07 | 70 | 1014.5 |
| 20260506202534 | 65 | 67 | 2.0 | 5.0 | 0.00 | 0.07 | 0.07 | 69 | 1014.4 |
| 20260506202055 | 66 | 76 | 1.0 | 2.0 | 0.00 | 0.07 | 0.07 | 69 | 1014.5 |
| 20260506201531 | 65 | 73 | 1.0 | 2.0 | 0.00 | 0.07 | 0.07 | 72 | 1014.5 |
| 20260506201138 | 64 | 76 | 1.0 | 3.0 | 0.00 | 0.07 | 0.07 | 71 | 1014.7 |
| 20260506200534 | 64 | 94 | 1.0 | 3.0 | 0.00 | 0.07 | 0.07 | 72 | 1014.8 |
| 20260506200034 | 64 | 72 | 3.0 | 7.0 | 0.00 | 0.07 | 0.07 | 70 | 1014.9 |
| 20260506195535 | 65 | 48 | 2.0 | 5.0 | 0.00 | 0.07 | 0.07 | 69 | 1014.7 |
| 20260506195035 | 65 | 66 | 1.0 | 2.0 | 0.00 | 0.07 | 0.07 | 68 | 1014.9 |
| 20260506194535 | 65 | 53 | 1.0 | 5.0 | 0.00 | 0.07 | 0.07 | 69 | 1014.9 |
| 20260506194054 | 65 | 57 | 1.0 | 3.0 | 0.00 | 0.07 | 0.07 | 69 | 1015.1 |
| 20260506193534 | 66 | 58 | 1.0 | 3.0 | 0.00 | 0.07 | 0.07 | 70 | 1015.2 |
| 20260506193035 | 64 | 75 | 0.0 | 1.0 | 0.00 | 0.07 | 0.07 | 69 | 1015.2 |
| 20260506192534 | 64 | 63 | 2.0 | 3.0 | 0.00 | 0.07 | 0.07 | 69 | 1015.3 |
| 20260506192035 | 64 | 64 | 1.0 | 3.0 | 0.00 | 0.07 | 0.07 | 68 | 1015.2 |
| 20260506191535 | 65 | 40 | 3.0 | 5.0 | 0.00 | 0.07 | 0.07 | 69 | 1015.2 |
| 20260506191115 | 64 | 62 | 1.0 | 2.0 | 0.00 | 0.07 | 0.07 | 71 | 1015.1 |
| 20260506190535 | 63 | 64 | 1.0 | 2.0 | 0.00 | 0.07 | 0.07 | 71 | 1015.1 |
| 20260506190034 | 63 | 88 | 2.0 | 7.0 | 0.00 | 0.07 | 0.07 | 71 | 1015.0 |
| 20260506185534 | 62 | 83 | 2.0 | 5.0 | 0.00 | 0.07 | 0.07 | 73 | 1014.7 |
| 20260506185034 | 61 | 33 | 2.0 | 5.0 | 0.00 | 0.07 | 0.07 | 74 | 1014.5 |
| 20260506184535 | 61 | 50 | 3.0 | 6.0 | 0.00 | 0.07 | 0.07 | 74 | 1014.8 |
| 20260506184018 | 61 | 29 | 2.0 | 5.0 | 0.00 | 0.07 | 0.07 | 75 | 1014.9 |
| 20260506183545 | 61 | 49 | 2.0 | 9.0 | 0.00 | 0.07 | 0.07 | 74 | 1014.9 |
| 20260506183055 | 61 | 58 | 2.0 | 3.0 | 0.00 | 0.07 | 0.07 | 74 | 1014.8 |
| 20260506182535 | 61 | 33 | 2.0 | 6.0 | 0.00 | 0.07 | 0.07 | 75 | 1014.8 |
| 20260506182035 | 60 | 33 | 2.0 | 6.0 | 0.00 | 0.07 | 0.07 | 76 | 1014.7 |
| 20260506181535 | 60 | 29 | 3.0 | 6.0 | 0.00 | 0.07 | 0.07 | 75 | 1014.9 |
| 20260506181113 | 60 | 11 | 3.0 | 6.0 | 0.00 | 0.07 | 0.07 | 76 | 1014.9 |
| 20260506180634 | 59 | 26 | 2.0 | 6.0 | 0.00 | 0.07 | 0.07 | 77 | 1015.1 |
| 20260506180035 | 58 | 20 | 2.0 | 5.0 | 0.00 | 0.07 | 0.07 | 78 | 1015.2 |
| 20260506175555 | 58 | 34 | 3.0 | 7.0 | 0.00 | 0.07 | 0.07 | 79 | 1015.3 |
| 20260506175114 | 57 | 35 | 2.0 | 5.0 | 0.00 | 0.07 | 0.07 | 80 | 1015.2 |